(482571) = 2012 WT16

Discovered at Kitt Peak on 2012-11-22 by Spacewatch.

Orbit

Orbit type: Main Belt

Note: WebGL enabled browser required.

epoch2023-02-25.0
epoch JD2460000.5
perihelion date2021-12-23.85633
perihelion JD2459572.35633
argument of perihelion (°)58.82984
ascending node (°)92.77068
inclination (°)13.51266
eccentricity0.1293384
perihelion distance (AU)2.2657353
Tisserand w.r.t. Jupiter3.4
ΔV w.r.t. Earth (km/sec)10.3
semimajor axis (AU)2.6023143
mean anomaly (°)100.52029
mean daily motion (°/day)0.23478170
aphelion distance (AU)2.939
period (years)4.2
P-vector [x]-0.85599513
P-vector [y]0.35789329
P-vector [z]0.37307469
Q-vector [x]-0.46130557
Q-vector [y]-0.85453671
Q-vector [z]-0.23867169
absolute magnitude17.26
phase slope0.15
uncertainty0
referenceMPO 745323
observations used148
oppositions10
arc length (days)5337
first opposition used2008
last opposition used2023
residual rms (arc-secs)0.78
perturbers coarse indicatorM-v
perturbers precise indicator003Ek
first observation date used2008-11-08.0
last observation date used2023-06-20.0
computer nameMPCLINUX
Minimum Orbit Intersection Distances (in AU)
for orbit epoch: 2460000.5, reference: E2023-M76
Mercury1.90287
Venus1.55747
Earth1.30969
Mars0.66854
Jupiter2.18817
Saturn6.55025
Uranus16.2239
Neptune27.0714

Observations

149 total observations over interval: 2008 11 08.40423 – 2023 06 20.487735
These data are available for download (format description).

